EHI
0 0 0 0 0 0 0 0 0 0 0 0 0 0 0 0 0 0 0 0 0 1 3 4 6 8 8 10 13 18 21 22 19 13 6 2 1 0 0 0 0 0 0 0 0 0 0 0 0
0 0 0 0 0 0 0 0 0 0 0 0 0 0 0 0 0 0 0 0 0 0 1 3 6 8 9 11 16 21 26 26 22 15 9 5 2 1 0 0 0 0 0 0 0 0 0 0 0
0 0 0 0 0 0 0 0 0 0 0 0 0 0 0 0 0 0 0 0 0 0 2 5 7 7 9 12 16 21 28 31 27 19 13 9 5 2 0 0 0 0 0 0 0 0 0 0 0
0 0 0 0 0 0 0 0 0 0 0 0 0 0 0 0 0 0 0 0 0 0 3 8 8 7 8 10 13 20 28 34 33 26 19 14 10 5 1 1 0 0 0 0 0 0 0 0 0
0 0 0 0 0 0 0 0 0 0 0 0 0 0 0 0 0 0 0 0 0 0 2 8 10 6 5 7 12 21 32 39 39 33 26 20 15 9 4 2 1 0 0 0 0 0 0 0 0
0 0 0 0 0 0 0 0 0 0 0 0 0 0 0 0 0 0 0 0 0 0 2 7 9 5 3 5 9 20 34 41 41 36 30 24 18 12 7 4 2 1 0 0 0 0 0 0 0
0 0 0 0 0 0 0 0 0 0 0 0 0 0 0 0 0 0 0 0 0 0 2 5 6 3 2 4 8 16 27 34 34 30 25 21 16 11 8 6 4 3 1 0 0 0 0 0 0
0 0 0 0 0 0 0 0 0 0 0 0 0 0 1 2 1 0 0 0 0 0 1 3 4 2 1 3 8 13 18 23 24 22 19 15 9 7 7 8 9 7 3 1 0 0 0 1 1
0 0 0 0 0 0 0 0 0 0 0 0 0 0 3 6 5 2 1 1 0 0 1 2 3 2 1 2 5 9 11 14 15 14 14 10 5 4 5 12 19 15 4 1 0 0 0 1 2
0 0 0 0 0 0 0 0 0 0 0 0 0 1 6 10 9 4 2 2 1 0 0 1 3 3 1 1 2 4 6 8 7 8 10 9 5 4 4 12 22 16 4 1 0 0 0 1 1
0 0 0 0 0 0 0 0 0 0 0 0 1 4 9 13 10 5 2 2 2 0 0 1 2 3 3 3 3 4 5 6 5 6 10 11 9 7 6 11 14 10 3 1 1 1 1 0 1
0 0 0 0 0 0 0 0 0 0 0 0 3 8 15 16 10 5 3 2 1 0 0 1 3 5 7 8 7 7 8 7 6 8 10 12 13 10 9 12 12 7 4 4 3 3 2 1 1
0 0 0 0 0 0 0 0 0 1 1 2 7 14 18 16 11 7 5 3 1 0 0 1 4 10 16 17 13 10 9 8 7 7 9 12 14 13 12 14 13 9 7 8 8 7 6 4 2
0 0 0 0 0 0 0 0 1 3 3 5 13 21 23 20 16 13 9 5 2 1 1 3 6 14 22 24 18 11 8 6 4 5 8 12 16 19 17 15 15 14 12 14 15 15 14 11 8
0 0 0 0 0 0 0 1 4 6 7 11 21 31 36 34 29 23 15 9 7 6 6 6 9 16 25 28 23 14 7 5 6 7 10 13 16 22 24 22 22 23 22 24 28 29 27 24 20
0 0 0 0 0 0 0 3 8 12 14 22 31 42 51 49 42 33 21 14 13 14 14 12 12 17 25 31 29 20 12 11 12 14 16 15 15 21 28 28 27 29 30 33 37 39 39 38 36
0 0 0 0 0 0 0 5 13 18 23 33 42 48 53 55 51 41 29 21 21 23 22 18 16 17 22 27 29 23 17 15 13 16 20 20 17 20 25 26 25 26 30 33 36 39 42 46 48
0 0 0 0 0 0 1 6 14 21 29 37 44 48 49 52 52 47 38 29 27 29 26 20 16 14 16 20 22 19 15 12 10 13 18 19 17 17 18 19 19 21 24 27 30 32 36 44 50
0 0 0 0 0 0 1 6 12 17 23 30 38 45 47 47 48 48 43 33 29 29 25 19 14 11 12 14 14 13 11 8 6 7 9 9 9 10 10 11 12 14 17 21 24 26 28 36 42
0 0 0 0 0 0 1 5 9 12 15 23 34 41 42 42 43 43 40 32 27 25 22 18 13 10 9 8 8 8 7 5 3 2 2 2 2 3 4 5 6 8 11 12 15 20 24 28 31
0 0 0 0 0 0 0 2 5 8 14 25 35 39 38 36 36 36 33 30 25 21 17 14 12 10 8 6 4 4 5 3 1 1 1 1 0 0 1 1 1 3 5 5 6 12 17 21 22
0 0 0 0 0 0 0 0 2 5 11 23 34 38 36 32 30 29 28 26 22 15 10 10 10 12 14 13 10 8 6 3 1 2 3 3 1 0 0 0 0 1 1 1 1 4 9 13 14
0 0 0 0 0 0 0 0 1 2 6 13 23 31 32 29 24 23 21 20 16 11 7 9 13 20 26 27 26 23 15 7 5 6 7 6 4 2 0 0 0 0 0 0 0 1 4 7 8
0 0 0 0 0 0 0 0 0 1 2 6 12 19 22 20 16 13 11 10 9 7 7 11 20 32 40 41 42 42 33 23 18 14 10 7 6 4 2 1 1 1 0 0 0 0 1 3 5
0 0 0 0 0 0 0 0 0 1 2 4 7 9 9 8 7 5 3 3 3 4 7 13 26 40 48 49 51 53 49 41 33 24 17 11 8 6 5 4 3 2 1 0 0 0 0 0 1
0 0 0 0 0 0 0 0 0 1 1 3 4 3 3 2 2 2 1 0 0 2 5 13 24 36 43 46 50 55 58 53 44 39 31 20 12 9 8 7 5 3 2 1 0 0 0 0 0
0 0 0 0 0 0 0 0 0 0 0 1 1 2 2 2 1 1 0 0 1 2 5 9 16 23 28 33 38 44 51 56 55 54 47 34 23 15 10 8 5 3 3 2 1 0 0 0 0
0 0 0 0 0 0 0 0 0 0 0 0 0 1 1 1 0 0 0 1 2 3 5 7 9 12 15 18 20 23 32 45 56 58 54 45 34 23 14 9 5 3 3 2 1 0 0 0 0
0 0 0 0 0 0 0 0 0 0 0 0 0 0 0 0 0 0 0 1 2 3 3 4 5 6 6 7 7 9 14 25 38 45 47 45 37 26 16 10 7 4 3 2 1 0 0 0 0
0 0 0 0 0 0 0 0 0 0 0 0 0 0 0 0 0 0 0 0 1 1 1 2 2 2 2 3 4 6 8 13 21 30 38 41 37 26 16 12 8 5 3 2 1 0 0 0 0
Wind_Speed
9 8 6 6 8 3 11 9 7 6 6 4 3 1 3 5 5 6 7 14 15 17 19 20 17 16 15 14 14 14 14 13 13 12 12 11 10 9 9 8 7 6 6 6 5 5 5 5 6
6 6 7 8 3 8 10 8 8 8 6 4 3 1 2 6 6 7 10 14 16 17 17 17 18 16 15 14 14 13 13 13 12 12 11 10 10 9 8 7 6 6 5 5 4 4 4 4 4
6 7 7 5 4 8 9 7 6 6 3 1 2 3 4 6 5 7 11 16 16 16 16 17 18 16 15 14 14 13 13 12 12 11 11 10 9 9 8 7 6 5 5 4 4 4 4 4 4
6 7 7 3 8 8 6 5 3 3 3 3 2 5 6 6 4 8 15 16 17 16 16 17 18 16 15 14 14 13 13 12 12 11 10 10 9 8 8 7 6 5 5 5 5 5 5 5 5
7 7 6 3 7 6 4 4 1 2 5 4 3 6 8 6 7 13 15 16 15 15 14 18 17 16 15 14 14 13 13 12 12 11 10 10 9 8 8 7 7 6 6 6 6 6 7 7 7
6 6 5 3 7 5 5 3 2 4 5 4 4 7 8 8 9 13 14 13 14 14 13 16 17 15 15 14 14 13 13 13 12 12 11 10 10 9 9 8 8 8 8 8 8 8 8 9 9
7 6 3 1 4 5 5 2 2 3 3 4 3 6 9 10 10 12 12 12 12 13 12 13 15 15 14 13 13 13 13 13 12 12 11 11 10 10 10 10 10 10 10 10 10 10 10 10 10
6 7 5 4 3 4 4 1 2 1 4 4 0 3 8 13 13 13 11 10 10 10 11 12 13 13 13 14 14 13 13 13 12 12 12 12 11 12 13 12 13 12 12 12 12 12 12 12 11
6 8 7 3 2 2 2 1 2 1 4 3 2 5 9 18 16 14 12 11 10 10 9 9 11 11 11 11 13 14 13 13 13 13 14 12 12 13 12 15 11 12 13 13 13 13 13 12 14
7 9 3 2 1 2 2 1 1 4 5 5 6 8 12 17 16 15 14 14 13 13 12 9 9 9 10 7 7 9 10 11 12 10 11 11 10 8 9 5 8 12 14 15 15 15 14 14 11
6 7 1 1 2 4 4 3 3 5 4 3 5 12 15 16 15 14 14 13 12 12 11 11 10 8 8 6 6 5 5 6 9 11 10 9 8 7 8 6 8 11 13 13 12 14 12 11 8
6 4 4 4 3 5 6 4 4 5 3 4 1 10 16 17 16 14 13 11 10 11 11 11 10 9 8 7 6 6 6 5 6 7 9 9 6 7 7 6 7 6 6 7 8 7 10 10 11
8 5 5 5 6 7 7 7 5 2 4 2 4 12 15 15 14 11 10 9 9 10 10 10 10 9 8 7 6 6 6 6 6 6 7 8 8 8 8 6 6 8 8 8 8 9 9 10 11
4 6 7 7 6 5 7 6 5 1 1 2 6 11 12 12 12 11 10 10 10 9 9 9 10 10 9 7 7 7 7 6 7 7 8 9 8 8 8 8 8 9 8 8 8 10 9 9 9
6 9 9 5 5 3 6 8 3 3 2 4 6 8 9 10 10 10 10 9 9 8 8 9 9 9 9 9 8 7 7 7 7 7 8 9 10 9 9 9 9 9 8 9 9 10 9 9 9
8 11 12 4 2 2 9 11 3 2 2 4 6 7 8 8 8 7 8 7 7 6 6 7 6 7 8 7 6 6 6 7 6 7 7 9 10 10 9 9 10 9 8 8 8 8 8 9 8
10 11 9 4 2 2 6 5 4 2 2 4 5 7 8 8 7 6 7 7 6 5 5 5 5 5 5 5 4 6 5 6 6 6 7 7 9 10 9 9 9 10 8 8 9 8 8 9 9
5 6 5 5 2 2 2 0 2 2 2 3 4 5 6 7 7 6 6 6 6 6 6 5 5 4 4 3 3 4 4 5 5 5 5 7 7 8 8 8 9 9 8 8 8 9 9 9 9
2 4 4 1 2 3 1 0 1 1 2 3 4 5 6 6 7 7 6 7 7 7 7 6 5 5 3 2 2 2 2 3 3 4 4 6 6 7 7 8 8 8 8 9 10 9 10 9 7
5 5 4 3 1 4 3 2 2 2 1 1 3 4 6 7 7 7 7 6 7 7 6 6 6 5 4 2 1 1 3 3 3 4 3 5 6 7 7 7 8 8 8 10 10 10 9 9 7
3 4 3 3 2 6 6 8 7 5 3 2 3 3 4 5 6 7 6 5 5 5 4 3 3 4 4 3 3 2 2 4 3 3 3 4 6 6 7 8 8 8 9 8 8 9 11 9 8
2 2 5 6 9 7 4 9 5 5 4 3 2 3 4 4 4 4 4 3 2 2 2 3 3 4 4 5 4 4 4 5 4 4 4 5 6 6 6 7 8 8 8 8 10 9 9 10 10
4 3 5 8 10 11 7 10 3 5 2 1 2 2 2 2 2 1 1 1 1 2 2 3 4 5 5 6 5 6 7 5 5 5 5 6 6 6 6 7 7 7 8 8 9 9 10 9 10
1 5 7 9 9 9 2 8 2 4 4 3 3 3 3 4 4 4 3 3 4 4 4 4 4 6 6 7 7 8 8 8 8 8 7 7 5 5 6 7 7 8 8 8 9 9 11 10 11
6 9 7 6 5 2 2 7 4 6 5 5 4 5 6 6 6 6 6 6 6 6 6 5 5 6 6 7 8 9 9 10 10 10 8 7 7 6 5 6 7 8 8 9 9 9 10 10 11
7 9 8 8 8 5 4 5 7 6 5 6 6 7 8 8 8 9 9 8 7 7 7 7 6 6 7 7 8 8 9 9 8 8 8 8 7 7 6 7 8 9 9 10 9 9 10 9 11
7 7 7 10 12 10 6 3 7 6 6 7 7 8 9 9 10 10 10 9 9 9 9 8 8 8 8 8 8 8 9 10 10 9 10 9 7 7 7 8 9 9 9 10 10 9 10 10 10
5 6 5 8 9 10 7 7 4 7 4 5 6 8 8 8 9 10 9 9 9 9 8 9 8 8 9 9 8 8 9 9 10 10 11 10 9 8 9 9 9 9 9 10 10 10 9 10 10
3 4 6 8 8 11 12 5 8 6 5 4 6 7 8 9 9 10 10 10 10 10 9 9 9 9 9 9 10 10 10 10 10 10 11 10 10 9 9 9 9 9 9 9 9 10 10 11 11
5 6 6 8 9 9 12 3 9 7 5 4 5 6 7 8 9 10 11 11 10 10 10 10 9 9 9 10 10 10 10 10 10 11 11 10 10 10 10 9 9 9 9 9 9 10 10 10 10
Wind_Direction
190 191 213 231 234 117 74 70 61 70 69 63 77 26 6 16 354 47 106 148 150 149 146 157 164 163 160 156 152 150 150 151 151 151 152 151 149 148 146 144 143 139 134 129 127 125 123 122 121
193 191 223 239 254 85 77 65 65 60 72 94 100 97 57 61 45 93 133 146 152 149 150 160 161 165 163 160 157 157 156 156 156 157 157 156 156 157 155 154 154 152 149 147 147 147 146 143 142
194 222 257 251 60 63 74 64 70 87 87 97 85 46 42 55 82 115 133 150 153 151 153 151 161 167 166 164 164 163 163 162 163 163 164 165 166 167 166 165 167 171 171 172 175 178 177 176 176
216 226 238 243 86 67 52 57 84 120 104 75 96 93 83 51 71 115 137 154 154 156 155 149 166 169 169 169 170 171 171 170 171 172 174 176 177 179 180 182 187 194 200 202 203 206 207 206 206
242 258 241 134 87 76 60 53 99 62 66 84 82 94 95 84 96 126 147 156 158 158 154 151 167 171 173 175 176 178 179 180 181 183 185 188 191 195 199 202 206 212 220 226 227 225 224 222 220
252 255 254 125 99 91 75 60 73 75 81 101 105 105 95 110 128 142 150 160 161 157 158 147 165 174 177 180 183 186 188 190 191 194 196 200 204 209 215 219 222 225 229 235 239 239 234 230 227
281 281 270 165 122 113 63 47 64 84 96 88 82 103 119 135 136 144 148 165 163 161 163 155 169 177 182 187 191 194 197 199 201 204 207 210 215 220 225 229 232 234 236 237 240 243 244 241 235
288 273 228 193 173 115 75 74 63 17 82 91 145 100 136 145 146 148 152 163 165 168 173 166 177 179 185 188 195 202 205 208 211 215 218 221 225 228 229 233 228 233 239 242 244 244 245 245 242
262 257 237 188 178 111 58 85 98 106 128 136 94 50 107 137 149 153 157 164 169 179 185 188 181 184 197 200 184 197 208 214 219 220 221 228 236 233 219 227 222 231 239 244 248 249 248 248 240
247 253 243 63 351 340 345 297 202 188 177 166 143 114 130 147 158 166 171 174 178 183 188 195 204 188 203 209 193 210 213 209 219 232 223 225 236 250 256 224 215 239 247 250 248 250 249 244 245
250 266 322 211 312 307 274 236 222 233 205 182 172 153 156 163 169 177 180 182 181 182 188 193 205 204 214 209 218 218 228 226 225 232 238 247 257 249 246 245 218 225 234 242 236 232 237 237 240
254 248 270 286 313 287 282 270 239 249 338 22 173 159 166 174 178 182 181 182 178 185 190 196 196 202 218 231 229 230 234 234 242 232 236 244 248 259 261 259 265 260 248 248 258 254 251 250 248
240 258 274 277 279 277 265 255 260 271 340 359 149 162 175 179 177 178 177 182 185 191 197 201 199 203 209 221 244 244 246 252 246 255 249 253 256 257 262 262 262 266 266 257 251 258 262 260 256
291 281 269 270 272 250 252 249 238 265 344 158 164 173 179 176 173 172 179 187 196 201 202 200 205 206 210 216 227 247 255 248 261 256 254 254 258 263 266 263 259 260 262 265 266 265 263 259 257
271 260 244 232 252 238 249 231 235 354 265 189 173 169 167 169 173 179 183 193 201 198 202 200 204 208 212 223 232 241 251 258 261 265 262 258 259 261 261 266 265 262 264 263 260 262 262 259 257
237 240 237 177 269 214 248 246 86 14 218 186 169 161 162 164 172 174 177 189 195 194 187 198 205 203 211 227 244 259 266 271 268 270 271 265 266 264 264 266 268 269 267 263 259 258 258 258 258
220 233 237 186 71 273 258 274 54 17 180 171 167 164 163 156 157 160 173 178 175 173 172 183 195 200 210 223 238 257 268 274 278 280 280 281 278 273 267 269 271 273 268 263 262 259 258 262 262
223 235 225 235 61 284 247 250 76 56 132 147 155 157 161 153 146 148 152 149 148 151 159 162 173 183 196 204 221 253 265 272 277 287 292 295 289 286 285 277 278 279 273 268 265 266 259 257 259
274 255 236 197 29 290 264 233 103 101 142 142 150 153 147 139 133 133 133 139 142 145 149 152 159 162 183 187 236 256 281 293 296 296 313 304 303 306 298 293 295 285 279 278 276 271 265 257 253
226 232 219 177 128 282 266 248 153 120 117 123 151 153 150 146 142 139 139 141 142 146 149 158 168 166 186 168 229 283 311 302 313 312 313 306 313 310 300 305 297 295 292 282 279 273 270 267 248
227 279 299 299 262 227 254 235 185 151 138 118 141 150 156 155 151 148 147 142 145 147 158 163 170 180 200 201 224 228 243 257 269 294 294 310 311 307 308 304 298 300 288 286 287 280 271 269 263
259 5 303 289 278 270 266 277 186 162 157 137 147 166 163 152 151 147 146 139 148 168 188 196 204 212 216 223 241 263 281 296 311 301 309 306 295 299 302 299 298 295 293 293 283 281 280 272 266
354 347 292 286 280 274 249 270 181 146 165 98 107 143 136 131 134 117 48 346 319 293 264 243 234 235 234 242 245 252 264 278 286 293 290 288 290 288 292 296 296 294 289 293 293 291 280 274 269
245 250 246 247 258 255 262 279 206 74 9 11 70 70 48 36 34 28 16 2 345 328 311 290 269 260 256 253 255 256 268 274 283 286 292 287 289 284 284 291 291 287 289 290 285 283 276 272 273
245 281 281 264 250 274 113 265 67 56 32 23 33 50 47 43 38 33 28 20 10 358 345 322 307 293 282 269 263 260 262 265 264 271 278 283 291 290 294 293 289 288 289 286 282 277 277 274 270
300 294 294 302 302 306 229 256 94 86 73 65 59 56 52 49 44 40 33 24 17 12 6 353 339 324 312 295 283 274 268 265 266 263 275 279 283 292 300 286 282 284 285 284 282 279 274 270 268
288 281 316 289 283 281 272 134 137 126 95 76 67 56 47 42 40 35 31 24 20 16 12 6 356 347 339 326 310 290 281 276 276 273 260 264 266 275 277 279 280 283 284 284 284 280 281 278 271
306 306 268 276 292 291 282 257 196 145 105 78 60 49 40 32 30 26 21 18 13 14 11 7 3 356 350 343 332 322 307 291 279 271 266 267 267 267 269 270 276 280 281 281 282 282 282 281 276
277 256 293 289 289 293 295 323 61 88 80 61 51 38 28 19 17 14 10 7 3 3 3 360 358 355 351 346 339 332 323 309 294 278 268 262 259 259 260 264 270 274 279 282 284 285 286 282 281
292 309 301 298 299 286 285 342 82 83 76 46 29 19 11 4 2 0 358 353 352 351 348 348 346 345 343 340 334 331 325 317 307 296 285 272 261 257 257 260 264 269 274 281 285 287 289 286 283